Tracking 22779 objects as of 12-Apr-2021
HD Live streaming from Space Station
objects crossing your sky now

STARLINK-1878

Track STARLINK-1878 now!
10-day predictions
STARLINK-1878 is classified as:


NORAD ID: 47163
Int'l Code: 2020-088AT
Perigee: 553.9 km
Apogee: 554.6 km
Inclination: 53.1 °
Period: 95.6 minutes
Semi major axis: 6925 km
RCS: Unknown
Launch date: November 25, 2020
Source: United States (US)
Launch site: AIR FORCE EASTERN TEST RANGE (AFETR)
aabbcc
Your satellite tracking list
Your tracking list is empty




NASA's NSSDC Master Catalog

Two Line Element Set (TLE):
1 47163U 20088AT  21102.58335648 -.00034879  00000-0 -23326-2 0  9998
2 47163  53.0554  76.7036 0000539  52.9455  67.5536 15.06425631 21830
Source of the keplerian elements: AFSPC